Presure
134 161 229 207 235 135 131 212 215 213 225 126 129 146 142 136 123 125 131 138 126 141 210 131 197 190 189 204 205 215 200 197 201 199 205 220 212 204 198 194 206 210 200
153 223 216 129 232 140 129 203 151 184 123 120 130 136 193 130 130 133 133 200 199 187 199 202 207 198 199 208 222 204 203 200 204 206 207 208 205 191 191 205 207 199 195
140 128 213 232 127 203 233 221 210 134 127 119 123 128 171 133 133 165 162 205 201 200 197 202 196 206 214 197 192 195 203 207 202 217 206 201 194 199 207 204 195 193 197
140 213 221 228 228 208 146 212 119 124 207 127 116 124 189 146 128 199 201 186 192 201 197 183 213 213 202 207 213 206 204 219 209 204 194 192 198 206 201 196 191 190 193
218 217 220 131 122 166 216 133 138 125 131 198 217 202 189 140 193 200 204 213 205 199 214 216 204 200 204 201 207 210 213 209 207 197 197 197 201 191 195 189 190 197 210
213 220 213 148 145 210 207 205 192 156 205 207 205 200 198 198 197 199 194 214 195 211 195 204 209 209 217 211 207 207 212 198 198 194 202 195 191 195 188 197 207 200 209
215 217 212 210 211 204 204 206 206 200 193 193 197 207 204 205 209 210 216 207 213 201 201 206 208 208 205 199 216 208 199 202 195 203 193 195 193 192 201 202 203 212 207
230 230 238 216 203 199 209 210 214 213 218 217 214 213 215 211 203 206 206 208 206 209 200 203 204 201 202 218 202 197 196 200 201 191 192 193 196 203 201 205 204 204 217
218 220 217 216 219 222 217 217 213 210 206 204 210 210 208 208 215 220 220 206 202 203 203 202 196 206 214 201 199 195 204 199 192 193 195 200 204 198 202 201 213 225 234
209 210 217 222 223 221 221 222 220 220 216 213 211 209 209 209 207 207 206 208 203 200 195 213 217 206 200 196 198 202 186 191 194 196 200 204 200 201 206 216 220 232 244
213 212 212 214 214 213 211 212 213 214 212 208 205 205 206 208 209 212 208 196 195 215 211 201 194 196 195 196 193 191 197 195 197 205 194 203 203 215 207 218 227 237 253
223 217 203 205 205 204 203 202 203 205 206 209 215 212 207 204 205 207 202 227 223 194 199 191 195 193 192 199 198 201 196 203 188 206 202 210 211 205 213 225 235 250 256
204 207 208 210 213 212 213 214 210 208 206 205 198 197 200 198 204 222 230 204 195 194 194 193 200 205 198 195 199 195 201 185 196 204 203 208 209 211 223 233 247 258 243
201 209 211 211 213 218 216 202 203 206 203 198 199 203 222 230 214 212 202 201 197 196 198 199 197 202 204 207 207 210 209 202 201 200 209 211 218 224 229 245 257 243 245
209 219 211 207 207 221 212 206 210 207 201 202 199 200 202 203 201 200 196 196 199 197 196 199 198 200 205 205 211 203 202 198 197 201 214 222 226 233 242 257 241 244 252
204 202 206 208 209 210 208 202 206 208 206 208 206 200 200 198 199 199 200 200 199 198 198 204 204 205 194 213 194 203 201 197 195 216 215 228 235 245 257 240 244 249 279
209 202 205 205 201 199 211 211 203 204 203 205 204 202 200 200 201 198 196 197 199 203 206 207 208 196 213 215 201 198 195 210 215 218 228 235 249 253 241 245 248 278 304
240 227 217 210 207 204 199 219 208 211 212 209 206 204 205 201 196 194 198 200 203 202 195 208 202 214 206 197 193 205 207 217 223 231 235 249 241 243 241 256 284 305 335
267 249 234 225 221 214 210 207 205 205 204 203 201 207 211 210 208 204 204 202 202 202 206 189 209 201 199 193 208 206 221 224 238 234 247 232 241 241 255 284 303 334 355
245 257 273 249 233 202 216 213 212 210 208 203 204 204 204 206 204 203 203 205 204 196 214 201 213 203 198 213 207 235 206 242 235 249 229 238 242 252 286 305 333 337 420
217 251 259 279 267 249 237 230 220 219 216 214 212 214 215 213 212 212 213 215 214 204 212 218 216 219 223 232 238 239 243 241 254 229 241 242 255 288 301 331 347 424 419
172 217 240 264 286 268 257 245 236 231 226 225 224 221 221 205 215 216 220 217 216 217 221 222 230 239 248 239 241 238 244 246 233 240 243 257 287 285 327 319 428 424 416
211 202 250 225 217 229 232 190 243 247 247 251 258 256 243 199 236 236 236 235 236 244 254 254 249 238 241 242 241 249 232 231 239 242 265 291 279 330 331 434 418 449 418
204 196 244 255 249 218 211 210 223 222 222 221 235 265 264 263 256 254 257 257 251 246 245 246 245 245 245 248 238 230 231 240 245 274 292 287 318 322 439 422 400 437 419
215 223 227 236 246 230 230 240 242 227 239 259 257 263 262 263 260 255 248 245 248 251 259 253 248 244 236 234 235 240 242 253 275 295 285 311 319 436 420 399 382 372 425
214 219 220 231 236 230 229 237 231 261 255 258 259 264 260 241 231 237 258 266 259 250 242 236 230 230 237 240 243 248 266 282 295 283 323 315 347 416 402 386 373 369 377
Wind_Speed
34 37 39 39 44 43 45 46 48 50 49 47 51 59 58 59 54 59 65 68 62 74 71 70 71 74 76 75 78 77 77 79 81 80 83 84 82 82 84 87 88 85 86
34 32 35 38 39 33 36 47 45 48 40 43 52 55 56 59 62 63 64 65 67 67 67 67 66 71 74 78 73 75 77 79 83 83 82 81 79 83 88 89 86 88 90
36 31 34 35 30 30 42 44 47 49 43 41 47 53 57 61 62 62 62 66 64 64 66 66 71 72 75 73 74 75 80 82 82 81 80 80 83 86 84 84 90 91 94
36 30 29 29 34 34 38 37 35 41 41 48 45 53 51 59 59 59 63 66 67 65 67 73 70 70 72 75 79 80 80 80 78 78 81 85 87 85 86 89 89 93 101
27 27 29 30 35 32 31 48 53 46 50 44 42 45 50 57 61 59 64 64 58 63 68 70 70 73 73 74 77 77 77 77 77 79 83 85 85 88 91 93 98 100 101
27 30 30 32 40 32 32 33 37 44 37 37 41 44 48 51 57 61 64 67 63 66 63 69 72 72 73 74 74 75 75 75 78 83 84 85 88 90 92 97 98 101 105
27 33 34 35 35 34 34 37 39 39 40 43 49 55 56 57 63 62 69 65 66 65 68 71 72 70 72 73 77 76 75 78 80 82 85 87 90 95 99 99 101 104 108
21 26 30 42 34 35 44 45 49 48 48 50 53 57 56 57 58 62 65 65 65 66 70 72 72 72 73 79 77 77 78 81 83 86 89 93 96 98 100 103 104 106 112
20 26 30 32 33 35 37 37 40 42 45 47 50 53 56 59 62 65 65 62 64 69 69 72 73 75 77 75 79 82 81 82 86 90 94 96 98 100 103 105 111 113 111
20 21 25 30 34 36 37 38 40 42 44 46 48 51 53 55 58 61 61 60 64 68 70 74 75 76 76 77 78 79 84 87 90 94 96 98 100 103 107 112 114 116 119
25 26 25 28 29 30 33 35 37 40 43 46 49 52 53 56 58 61 59 59 65 66 70 74 75 77 80 84 84 85 88 91 94 95 96 101 103 109 111 114 116 120 122
29 26 24 25 27 29 33 37 40 43 46 48 51 51 54 57 60 59 60 64 61 69 72 76 77 80 84 86 88 87 91 92 92 98 101 104 108 110 114 117 120 125 124
34 33 33 33 33 34 38 41 43 44 49 51 50 53 56 58 61 66 64 64 68 71 74 80 80 77 82 84 86 90 92 92 98 101 104 108 111 113 116 120 125 126 120
38 40 40 39 36 35 35 42 44 47 48 51 56 56 58 60 61 62 65 66 70 73 77 81 85 85 84 87 88 91 92 95 99 103 109 111 113 116 119 125 126 120 123
39 40 41 42 41 38 36 44 45 50 51 54 56 56 57 58 62 65 68 72 74 75 80 82 84 87 89 89 91 91 94 98 101 106 112 113 116 120 125 127 121 124 130
40 39 41 43 45 45 42 48 50 51 52 54 56 58 60 62 65 68 71 75 77 80 82 84 87 89 86 94 91 95 99 102 103 112 113 117 119 125 125 120 125 130 134
40 43 45 46 45 45 48 51 55 54 56 57 58 60 62 65 68 71 73 77 79 82 85 88 90 86 95 95 94 98 100 107 111 113 117 119 126 123 121 126 128 130 130
43 45 48 51 50 49 48 51 55 56 58 59 61 63 66 68 70 73 75 78 80 83 84 89 88 95 91 93 97 104 106 111 114 118 118 124 120 124 124 130 130 130 130
40 49 52 54 55 56 57 57 58 59 60 62 64 66 69 72 74 76 78 81 84 85 89 82 92 90 93 97 106 106 110 112 117 117 123 116 122 125 130 130 131 131 115
42 43 43 54 58 53 60 62 63 65 66 67 69 72 74 76 78 80 82 85 87 84 93 90 96 94 97 106 105 116 104 116 114 118 113 119 122 129 132 131 130 118 80
46 46 45 45 50 58 62 65 66 68 71 73 76 78 79 81 84 87 89 91 92 89 95 99 101 104 107 111 113 115 116 116 118 111 117 121 128 128 131 128 111 79 74
43 50 48 42 46 47 53 60 65 69 73 77 79 82 84 81 87 90 94 95 96 98 100 103 107 108 106 108 111 112 117 118 115 119 122 128 128 126 126 123 80 74 67
53 59 45 48 51 45 47 58 55 58 62 66 71 77 87 75 93 96 98 101 102 102 99 98 99 101 105 107 110 112 110 113 119 122 127 128 122 127 124 78 75 60 60
56 51 53 55 49 59 63 67 66 67 71 75 75 71 75 80 86 88 87 88 90 93 94 96 98 100 104 105 105 106 109 117 121 126 127 122 125 123 75 71 69 54 52
55 58 56 57 61 60 67 69 69 74 75 72 71 73 74 75 77 78 82 86 89 92 94 95 98 100 100 103 106 111 115 120 124 125 120 124 123 77 70 67 65 61 43
61 63 61 66 67 67 69 73 75 77 79 72 73 74 73 74 78 81 85 87 89 91 93 94 96 99 104 107 112 116 122 126 127 121 123 121 121 75 68 66 63 59 50
Wind_Direction
237 240 217 223 207 239 250 221 224 232 230 268 269 266 269 269 284 284 283 281 287 283 280 290 280 281 283 283 282 287 288 290 292 294 295 295 295 296 295 296 296 299 299
235 221 227 258 213 257 263 225 251 240 276 281 272 263 260 277 281 281 284 270 273 276 277 276 278 280 285 287 288 289 290 291 292 293 294 295 295 295 297 297 299 299 299
245 261 229 225 260 232 224 227 231 260 272 284 285 282 265 277 281 274 277 266 268 271 272 279 280 287 286 286 288 290 291 291 293 294 296 295 294 294 295 299 299 301 303
252 241 236 229 232 240 268 232 277 282 251 280 283 284 263 278 283 263 262 269 269 276 276 277 289 286 286 288 287 289 290 291 293 295 296 296 295 299 301 301 300 302 302
240 235 240 263 274 262 240 272 267 279 278 251 253 252 255 278 257 263 271 274 276 279 286 286 284 284 287 289 288 289 291 294 296 296 295 294 298 300 301 302 302 300 298
245 238 246 261 260 251 254 251 256 269 259 266 266 264 265 267 269 272 272 281 281 287 284 285 285 286 287 288 291 292 295 298 297 295 296 298 299 299 300 297 297 300 300
243 248 246 252 255 258 260 261 263 264 262 264 268 272 273 274 275 277 279 282 282 283 285 285 286 289 291 294 293 297 298 296 294 293 295 298 299 299 298 299 301 302 302
244 246 246 247 254 262 265 265 267 264 268 270 269 271 272 273 275 277 279 283 286 285 285 288 291 293 295 292 297 297 296 295 296 300 301 300 299 298 299 302 302 304 302
253 252 250 250 253 250 252 256 261 264 266 270 270 271 273 276 275 276 278 284 286 286 289 290 293 293 291 296 295 296 297 298 300 300 299 298 298 300 302 303 303 303 304
260 261 265 263 261 263 266 265 266 267 267 268 268 269 271 274 277 278 281 284 286 289 291 288 287 294 295 293 294 295 299 299 298 298 298 299 301 302 303 303 304 308 309
259 262 264 269 273 277 278 277 276 274 272 272 274 277 280 280 282 285 288 292 289 286 286 291 295 295 297 298 300 300 298 297 298 299 299 301 303 304 305 306 308 309 310
281 280 269 269 272 276 278 277 276 277 278 278 278 282 284 286 288 293 293 286 283 292 291 295 295 297 298 296 296 296 297 299 299 301 302 304 305 306 306 307 310 311 310
286 282 281 279 276 277 277 278 278 279 281 283 286 288 290 293 293 287 286 286 289 292 292 294 292 289 292 294 295 296 298 298 299 303 305 306 305 305 306 310 311 310 310
287 282 282 281 278 277 275 275 280 281 279 282 284 285 279 277 287 287 289 290 290 291 291 293 296 297 297 297 298 300 300 300 303 306 305 305 305 307 309 311 310 311 311
279 280 280 281 280 281 276 275 275 273 278 279 285 287 286 287 287 289 291 291 292 293 294 294 295 295 297 300 300 300 301 303 305 304 303 305 307 309 310 310 311 312 312
278 280 282 281 283 285 284 284 282 279 281 282 283 285 286 289 290 289 290 291 291 293 294 294 295 297 300 300 300 303 303 303 304 304 304 307 309 310 310 310 313 312 310
274 277 279 279 280 283 280 277 280 282 283 281 283 285 286 286 286 287 288 289 291 292 293 294 296 298 299 300 301 300 301 302 303 304 307 309 309 310 311 312 311 310 313
275 273 274 277 279 279 280 276 279 280 280 281 282 283 283 284 286 288 289 290 292 293 295 295 298 297 299 298 299 300 301 302 304 306 308 309 310 311 311 311 312 314 314
293 277 274 276 277 280 281 282 281 281 282 284 285 285 285 285 286 288 290 291 291 293 292 297 296 297 297 297 298 299 300 303 305 308 308 309 311 310 310 312 314 315 312
308 295 291 273 271 285 278 280 281 283 283 285 285 286 286 286 287 288 288 289 290 297 293 297 298 296 295 297 298 301 302 304 306 307 307 309 310 310 312 314 314 314 308
297 307 301 296 282 275 275 276 280 281 282 283 285 285 285 285 286 286 287 288 291 295 296 295 296 297 297 299 301 302 303 305 306 307 309 310 310 313 314 314 314 309 308
295 295 305 315 305 291 284 282 281 281 281 282 283 284 285 290 288 290 290 291 292 293 294 295 295 297 300 299 301 303 305 306 308 310 311 310 312 314 315 315 309 308 306
289 291 307 291 291 291 293 299 292 290 291 293 292 288 284 293 285 286 287 288 290 292 295 297 298 297 298 300 302 303 305 307 309 309 309 312 313 315 315 310 309 303 303
286 298 308 313 295 289 289 292 289 289 289 289 292 294 291 290 288 289 291 294 294 294 295 296 297 298 299 301 303 304 306 307 308 309 312 312 314 315 312 312 311 305 302
293 298 303 307 304 295 296 293 293 292 295 296 296 297 296 295 295 294 294 294 296 297 297 297 298 300 301 303 304 306 306 306 309 311 312 314 315 315 314 314 313 312 303
293 299 301 305 302 299 298 297 295 302 299 298 299 297 296 295 294 297 299 300 299 298 298 299 301 302 303 305 306 306 308 311 312 313 313 314 317 315 314 313 313 312 310